Change the Weather History Date:

Friday, July 5, 2013

  Actual Average Record
Temperature  
Mean Temperature 78 °F -  
Max Temperature 87 °F 76 °F 91 °F (1983)
Min Temperature 69 °F 53 °F 38 °F (1979)
Cooling Degree Days 13    
Growing Degree Days 28 (Base 50)    
Moisture  
Dew Point 62 °F    
Average Humidity 59    
Maximum Humidity 88    
Minimum Humidity 35    
Precipitation  
Precipitation 0.01 in - - ()
Sea Level Pressure  
Sea Level Pressure 29.90 in    
Wind  
Wind Speed 7 mph (West)    
Max Wind Speed 20 mph    
Max Gust Speed 28 mph    
Visibility 10 miles    
Events      
Averages and records for this station are not official NWS values.
T = Trace of Precipitation, MM = Missing Value Source: NWS Daily Summary

Daily Weather History Graph

Daily Weather History Graph

Search for Another Location

Airport or City:

Trip Planner

Search our weather history database for the weather conditions in past years. The results will help you decide how hot, cold, wet, or windy it might be!

Date:

Astronomy

Jul. 05, 2013 Rise Set
Actual Time 4:45 AM EDT 8:28 PM EDT
Civil Twilight 4:06 AM EDT 9:06 PM EDT
Nautical Twilight 3:14 AM EDT 9:58 PM EDT
Astronomical Twilight 2:00 AM EDT 11:11 PM EDT
Moon 2:45 AM EDT (7/5) 6:16 PM EDT (7/5)
Length of Visible Light 17h 00m
Length of Day
15h 42m
Waning Crescent, 6% of the Moon is Illuminated
Jul 5
Waning Crescent
Jul 8
New
Jul 15
First Quarter
Jul 22
Full
Jul 29
Last Quarter

Hourly Weather History & Observations

Time (EDT) Temp. Heat Index Dew Point Humidity Pressure Visibility Wind Dir Wind Speed Gust Speed Precip Events Conditions
12:35 AM 69.8 °F - 64.4 °F 83% 29.92 in 10.0 mi Calm Calm - N/A   Partly Cloudy
12:55 AM 69.8 °F - 64.4 °F 83% 29.91 in 10.0 mi SW 3.5 mph - N/A   Scattered Clouds
1:15 AM 69.8 °F - 62.6 °F 78% 29.91 in 10.0 mi SSW 3.5 mph - N/A   Partly Cloudy
1:35 AM 71.6 °F - 62.6 °F 73% 29.91 in 10.0 mi South 3.5 mph - N/A   Clear
1:55 AM 73.4 °F - 64.4 °F 73% 29.91 in 10.0 mi WSW 4.6 mph - N/A   Partly Cloudy
2:15 AM 75.2 °F - 64.4 °F 69% 29.90 in 10.0 mi WSW 9.2 mph - N/A   Mostly Cloudy
2:35 AM 75.2 °F - 64.4 °F 69% 29.91 in 10.0 mi West 9.2 mph - N/A   Overcast
2:55 AM 73.4 °F - 64.4 °F 73% 29.91 in 10.0 mi West 9.2 mph - N/A   Overcast
3:15 AM 71.6 °F - 64.4 °F 78% 29.91 in 10.0 mi West 9.2 mph - N/A   Overcast
3:35 AM 71.6 °F - 64.4 °F 78% 29.91 in 10.0 mi West 6.9 mph - 0.01 in   Mostly Cloudy
4:15 AM 71.6 °F - 64.4 °F 78% 29.91 in 10.0 mi South 3.5 mph - N/A   Clear
4:35 AM 69.8 °F - 66.2 °F 88% 29.91 in 10.0 mi SSW 4.6 mph - N/A   Clear
4:55 AM 71.6 °F - 64.4 °F 78% 29.91 in 10.0 mi SSW 6.9 mph - N/A   Clear
5:15 AM 71.6 °F - 64.4 °F 78% 29.92 in 10.0 mi SW 5.8 mph - N/A   Clear
5:35 AM 71.6 °F - 64.4 °F 78% 29.92 in 10.0 mi WSW 6.9 mph - N/A   Clear
5:55 AM 71.6 °F - 66.2 °F 83% 29.92 in 10.0 mi SW 6.9 mph - N/A   Clear
6:15 AM 71.6 °F - 66.2 °F 83% 29.93 in 10.0 mi Calm Calm - N/A   Clear
6:35 AM 71.6 °F - 64.4 °F 78% 29.93 in 10.0 mi SW 4.6 mph - N/A   Clear
6:55 AM 73.4 °F - 66.2 °F 78% 29.93 in 10.0 mi WSW 8.1 mph - N/A   Clear
7:15 AM 73.4 °F - 66.2 °F 78% 29.93 in 10.0 mi West 9.2 mph - N/A   Clear
7:35 AM 75.2 °F - 66.2 °F 73% 29.93 in 10.0 mi West 11.5 mph - N/A   Clear
7:55 AM 75.2 °F - 66.2 °F 73% 29.93 in 10.0 mi West 10.4 mph - N/A   Partly Cloudy
8:15 AM 75.2 °F - 66.2 °F 73% 29.93 in 10.0 mi West 11.5 mph 18.4 mph N/A   Clear
8:35 AM 77.0 °F - 66.2 °F 69% 29.93 in 10.0 mi West 9.2 mph - N/A   Clear
8:55 AM 78.8 °F - 66.2 °F 65% 29.93 in 10.0 mi West 11.5 mph - N/A   Clear
9:35 AM 78.8 °F - 64.4 °F 61% 29.92 in 10.0 mi West 12.7 mph - N/A   Clear
9:55 AM 80.6 °F 82.3 °F 64.4 °F 58% 29.92 in 10.0 mi West 12.7 mph - N/A   Clear
10:15 AM 82.4 °F 83.9 °F 64.4 °F 54% 29.93 in 10.0 mi WNW 11.5 mph 19.6 mph N/A   Clear
10:35 AM 82.4 °F 83.9 °F 64.4 °F 54% 29.93 in 10.0 mi West 12.7 mph 17.3 mph N/A   Partly Cloudy
10:55 AM 80.6 °F 82.3 °F 64.4 °F 58% 29.92 in 10.0 mi West 15.0 mph 18.4 mph N/A   Clear
11:15 AM 82.4 °F 83.9 °F 64.4 °F 54% 29.93 in 10.0 mi West 15.0 mph 20.7 mph N/A   Clear
11:35 AM 82.4 °F 83.9 °F 64.4 °F 54% 29.92 in 10.0 mi WNW 12.7 mph 17.3 mph N/A   Clear
11:55 AM 82.4 °F 83.4 °F 62.6 °F 51% 29.91 in 10.0 mi West 10.4 mph 18.4 mph N/A   Clear
12:15 PM 82.4 °F 83.4 °F 62.6 °F 51% 29.91 in 10.0 mi West 16.1 mph 19.6 mph N/A   Clear
12:35 PM 84.2 °F 84.4 °F 60.8 °F 45% 29.91 in 10.0 mi West 11.5 mph 19.6 mph N/A   Clear
1:15 PM 84.2 °F 84.4 °F 60.8 °F 45% 29.90 in 10.0 mi West 15.0 mph 21.9 mph N/A   Clear
1:35 PM 86.0 °F 86.1 °F 60.8 °F 43% 29.90 in 10.0 mi West 11.5 mph 19.6 mph N/A   Clear
1:55 PM 86.0 °F 84.9 °F 57.2 °F 37% 29.89 in 10.0 mi West 13.8 mph 23.0 mph N/A   Partly Cloudy
2:15 PM 86.0 °F 85.4 °F 59.0 °F 40% 29.89 in 10.0 mi West 15.0 mph 23.0 mph N/A   Partly Cloudy
2:35 PM 86.0 °F 86.1 °F 60.8 °F 43% 29.89 in 10.0 mi West 19.6 mph 27.6 mph N/A   Mostly Cloudy
2:55 PM 84.2 °F 84.4 °F 60.8 °F 45% 29.89 in 10.0 mi WNW 13.8 mph 20.7 mph N/A   Scattered Clouds
3:15 PM 86.0 °F 85.4 °F 59.0 °F 40% 29.88 in 10.0 mi West 13.8 mph 21.9 mph N/A   Scattered Clouds
3:35 PM 87.8 °F 86.5 °F 57.2 °F 35% 29.88 in 10.0 mi West 11.5 mph 25.3 mph N/A   Partly Cloudy
3:55 PM 87.8 °F 87.1 °F 59.0 °F 38% 29.87 in 10.0 mi West 10.4 mph 18.4 mph N/A   Partly Cloudy
4:15 PM 86.0 °F 85.4 °F 59.0 °F 40% 29.87 in 10.0 mi West 8.1 mph 16.1 mph N/A   Partly Cloudy
4:35 PM 87.8 °F 87.1 °F 59.0 °F 38% 29.86 in 10.0 mi West 13.8 mph 18.4 mph N/A   Clear
4:55 PM 87.8 °F 87.1 °F 59.0 °F 38% 29.86 in 10.0 mi West 15.0 mph - N/A   Partly Cloudy
5:15 PM 87.8 °F 87.6 °F 60.8 °F 40% - 10.0 mi West 10.4 mph 17.3 mph N/A   Scattered Clouds
5:35 PM 87.8 °F 87.6 °F 60.8 °F 40% - 10.0 mi West 11.5 mph - N/A   Partly Cloudy
5:55 PM 86.0 °F 85.4 °F 59.0 °F 40% - 10.0 mi West 11.5 mph 19.6 mph N/A   Clear
6:15 PM 86.0 °F 84.9 °F 57.2 °F 37% - 10.0 mi West 10.4 mph 17.3 mph N/A   Clear
6:35 PM 84.2 °F 83.8 °F 59.0 °F 42% - 10.0 mi West 8.1 mph - N/A   Clear
6:55 PM 84.2 °F 83.8 °F 59.0 °F 42% - 10.0 mi West 11.5 mph - N/A   Clear
7:15 PM 84.2 °F 83.5 °F 57.2 °F 40% - 10.0 mi West 8.1 mph - N/A   Clear
7:35 PM 82.4 °F 82.0 °F 57.2 °F 42% - 10.0 mi West 6.9 mph - N/A   Clear
7:55 PM 80.6 °F 81.1 °F 59.0 °F 48% 29.86 in 10.0 mi WSW 6.9 mph - N/A   Clear
8:15 PM 80.6 °F 80.8 °F 57.2 °F 45% - 10.0 mi West 9.2 mph - N/A   Clear
8:35 PM 78.8 °F - 57.2 °F 47% - 10.0 mi West 4.6 mph - N/A   Clear
8:55 PM 77.0 °F - 57.2 °F 50% - 10.0 mi West 3.5 mph - N/A   Clear
9:15 PM 77.0 °F - 57.2 °F 50% 29.87 in 10.0 mi Calm Calm - N/A   Clear
9:35 PM 75.2 °F - 57.2 °F 53% 29.87 in 10.0 mi West 3.5 mph - N/A   Clear
9:55 PM 71.6 °F - 59.0 °F 64% 29.87 in 10.0 mi WSW 4.6 mph - N/A   Clear
10:15 PM 73.4 °F - 59.0 °F 61% - 10.0 mi WSW 4.6 mph - N/A   Clear
10:35 PM 73.4 °F - 59.0 °F 61% 29.87 in 10.0 mi West 6.9 mph - N/A   Clear
10:55 PM 71.6 °F - 59.0 °F 64% 29.87 in 10.0 mi West 5.8 mph - N/A   Clear
11:15 PM 71.6 °F - 59.0 °F 64% 29.87 in 10.0 mi Calm Calm - N/A   Clear
11:35 PM 71.6 °F - 59.0 °F 64% 29.88 in 10.0 mi SW 5.8 mph - N/A   Clear
11:55 PM 71.6 °F - 60.8 °F 69% 29.88 in 10.0 mi WSW 6.9 mph - N/A   Clear